Lapse_Rate
0.0 0.4 1.3 1.1 1.1 0.7 0.9 0.9 1.1 1.7 2.0 2.5 3.0 3.3 3.5 3.6 3.5 3.3 3.2 3.2 3.2 3.5 3.5 3.6 4.1 4.1 3.9 4.2 4.3 4.5 5.0 6.2 6.8 6.9 6.9 6.0 6.0 6.6 5.9 6.4 6.8 5.7 4.2
-0.3 0.3 0.8 1.3 1.2 1.1 1.2 1.2 1.6 2.0 2.2 2.7 3.2 3.4 3.5 3.6 3.6 3.6 3.4 4.0 3.8 3.7 3.9 3.9 4.4 5.7 4.5 4.6 4.6 4.8 5.3 6.5 6.7 6.8 6.8 5.9 6.1 6.3 6.1 5.9 6.6 5.8 5.5
0.1 0.4 0.9 1.1 1.3 1.5 1.5 1.6 1.8 2.1 2.4 2.8 3.3 3.2 3.6 3.8 3.9 3.6 3.4 3.6 3.9 3.9 4.3 4.4 4.7 4.7 4.5 4.6 4.6 5.0 5.8 6.8 6.7 6.9 7.4 7.1 6.1 6.4 5.9 6.3 6.6 4.4 6.0
0.2 0.8 1.1 0.9 1.4 1.8 1.8 1.7 1.9 2.1 2.6 2.7 3.1 3.2 3.4 3.8 4.1 3.9 3.8 3.8 4.1 5.0 4.9 4.9 4.8 4.9 5.0 5.0 5.4 6.1 7.0 6.8 7.2 6.9 7.1 6.6 6.0 5.7 6.3 6.1 5.9 3.9 5.1
0.5 0.7 1.0 1.0 1.5 1.3 1.4 1.6 2.0 2.2 2.8 2.9 3.2 3.3 3.6 4.0 5.3 4.9 4.8 4.8 4.8 4.9 5.1 5.3 5.3 5.9 8.6 8.8 8.0 7.4 7.3 7.1 7.0 6.9 7.0 6.5 5.9 6.5 6.3 6.0 4.4 5.8 4.9
0.6 0.7 0.7 0.7 1.3 1.6 1.8 1.7 1.8 2.2 2.3 2.5 2.7 3.3 3.5 4.7 7.2 8.4 8.8 6.5 5.8 5.4 5.7 5.1 5.3 7.2 6.4 8.6 8.9 9.2 8.7 7.3 6.9 7.2 6.7 6.3 6.0 4.9 5.7 5.0 3.5 5.1 6.0
0.5 0.7 0.5 1.0 1.5 1.8 2.0 1.7 1.7 1.7 2.0 2.3 2.8 3.0 3.1 3.2 7.3 8.8 9.6 7.3 6.1 5.0 4.8 5.0 6.0 7.7 7.2 6.2 7.0 8.6 8.3 7.9 7.4 6.6 6.0 6.1 5.5 5.2 5.5 5.4 5.7 3.8 6.3
0.6 0.5 1.0 1.5 2.0 1.7 1.4 1.4 1.3 1.4 1.8 2.3 2.7 2.8 3.1 4.2 7.8 8.9 9.5 6.9 5.5 5.0 5.1 5.3 5.3 5.6 5.8 8.0 7.6 7.8 7.3 6.9 6.8 6.5 5.9 5.9 5.1 5.5 5.3 4.0 5.8 5.0 5.1
0.2 0.5 0.9 1.7 1.7 1.4 1.3 0.9 1.0 1.5 2.0 2.4 2.9 3.1 3.4 3.5 7.1 8.4 8.6 6.3 5.5 5.2 5.7 5.6 5.5 6.1 8.1 9.4 8.0 7.3 6.9 7.0 7.1 6.4 6.1 6.4 6.7 6.1 5.2 5.4 5.5 5.7 5.7
-0.1 0.4 1.0 1.5 1.7 1.6 1.0 0.6 1.1 1.8 2.9 3.3 3.5 3.1 4.7 4.3 6.3 8.0 8.4 6.5 6.0 6.3 7.1 6.4 8.3 8.8 9.3 8.9 8.0 6.7 6.6 6.4 6.9 5.5 4.7 5.3 6.3 6.4 6.1 4.2 4.5 5.9 5.9
-0.1 0.1 0.6 1.1 1.4 1.4 0.6 0.8 1.5 2.2 2.7 2.9 3.3 2.9 3.3 3.7 4.0 7.8 8.6 7.3 7.7 7.9 7.8 7.7 8.0 9.1 9.0 8.9 8.8 7.1 6.9 7.4 6.9 5.2 5.1 5.4 5.2 5.6 5.7 4.4 4.1 6.0 5.5
-0.5 0.4 0.9 0.6 3.0 2.1 1.1 1.4 2.1 2.2 2.4 2.8 2.9 2.9 3.3 3.6 6.0 7.2 8.3 8.9 8.8 7.1 7.3 7.4 6.7 8.4 9.1 9.1 8.7 8.2 7.5 7.4 5.6 5.1 4.5 6.0 5.4 5.4 5.7 5.2 5.1 6.7 6.8
0.5 0.7 0.9 1.1 1.8 1.5 1.6 2.1 2.1 2.0 2.4 3.1 3.3 3.4 3.5 4.2 4.1 6.8 7.7 8.3 8.4 7.7 7.4 7.9 8.5 8.2 8.1 7.3 7.8 8.4 6.7 6.0 6.1 5.4 4.4 3.9 5.7 6.1 5.6 5.8 6.0 6.4 5.2
1.3 0.9 0.9 2.0 1.8 2.2 2.9 2.8 2.4 2.6 2.7 3.2 3.6 3.6 3.6 4.0 4.0 3.9 4.4 4.5 6.4 7.2 7.5 5.2 6.9 7.5 7.2 7.0 7.6 6.7 5.9 6.2 6.6 6.1 5.0 3.2 5.6 5.8 6.1 6.1 6.1 6.6 5.1
2.1 2.0 2.4 3.3 3.3 3.0 2.9 2.8 2.9 3.2 3.7 3.9 3.6 3.8 4.3 4.4 4.8 6.9 7.6 6.8 6.1 6.6 7.4 5.3 4.9 5.0 5.3 6.2 7.2 6.5 5.5 6.0 6.4 5.5 4.3 4.6 5.9 5.9 5.9 6.4 6.7 6.7 5.9
3.6 3.6 3.6 3.3 3.3 3.2 3.3 3.6 5.4 6.0 6.8 7.2 7.2 6.9 5.8 7.4 8.4 8.4 8.1 7.9 7.9 8.3 6.1 5.0 4.6 4.9 5.3 6.5 7.0 6.3 5.8 5.9 6.3 5.3 3.9 4.3 6.1 6.2 6.2 6.6 6.6 6.9 5.8
4.3 3.9 3.8 4.2 4.1 3.5 3.6 3.9 4.2 4.4 6.2 7.2 7.7 8.1 8.1 8.0 8.3 7.9 7.8 7.8 7.8 7.6 5.1 4.4 4.4 4.9 5.4 6.2 6.9 6.6 6.0 5.4 6.1 4.9 4.7 3.6 6.3 6.5 5.9 6.5 6.8 7.0 6.1
5.1 5.5 4.2 4.1 4.0 3.5 3.7 3.8 3.4 3.6 3.9 4.3 6.0 6.9 7.7 8.1 7.8 7.6 7.9 7.6 4.9 4.9 4.5 4.5 4.5 4.9 5.3 6.2 6.7 6.7 5.8 5.4 5.9 5.6 4.8 4.2 5.7 6.5 6.4 6.6 6.5 6.5 6.1
4.7 4.0 3.9 3.7 3.5 3.8 3.4 3.4 3.6 3.9 4.1 4.3 4.8 6.2 6.5 7.3 7.5 7.7 7.8 5.4 4.7 4.3 4.5 4.5 4.7 4.6 5.2 6.2 6.6 6.6 6.1 5.5 5.9 5.8 5.9 3.7 4.5 6.3 6.5 5.8 6.6 6.3 6.0
3.9 4.8 4.2 3.7 3.7 3.5 3.4 4.0 4.2 4.4 4.9 6.2 6.2 5.7 5.0 4.7 4.9 5.1 5.0 4.7 4.3 4.3 4.5 4.7 5.0 4.6 5.5 6.2 6.7 6.6 6.2 5.5 5.6 5.4 5.8 3.6 2.3 6.3 6.5 6.1 6.2 6.3 5.4
3.6 4.3 4.6 3.6 3.6 4.0 4.4 5.2 6.4 5.6 5.9 5.5 6.5 6.6 7.8 6.2 5.2 5.9 5.0 4.7 4.8 6.3 6.2 6.8 6.0 4.6 5.4 6.0 6.6 6.7 6.2 5.7 5.4 5.1 4.3 3.7 1.9 5.8 5.8 6.9 6.2 6.1 4.9
2.9 3.0 3.5 3.9 4.7 5.6 6.2 6.1 5.6 5.4 5.8 6.9 6.7 6.5 7.5 6.9 6.7 5.8 4.9 4.8 4.9 5.9 6.9 7.1 6.6 4.8 5.3 5.7 6.5 6.9 6.3 5.4 5.1 4.9 4.3 3.4 1.7 2.4 5.9 6.4 6.0 5.6 5.1
3.3 3.9 4.4 5.2 5.7 6.5 6.1 6.1 6.3 6.3 6.6 6.7 5.7 5.8 5.9 6.0 5.1 5.0 5.1 5.2 5.3 5.6 5.8 6.4 5.8 4.8 5.3 5.9 6.5 6.4 6.1 5.5 4.8 4.5 3.7 2.7 1.6 1.2 5.7 5.7 5.9 5.8 5.4
4.4 5.0 5.5 5.6 6.1 6.3 6.2 5.3 5.2 6.1 6.1 6.5 5.9 5.4 5.2 5.9 6.3 5.5 5.1 5.1 5.1 5.5 5.8 5.7 5.6 4.9 5.6 6.2 6.2 6.0 6.0 5.0 4.2 3.4 2.5 1.8 0.8 1.0 5.4 5.4 5.6 5.1 4.7
5.1 5.4 5.9 6.3 6.5 6.4 6.4 5.6 5.7 5.8 6.2 6.8 6.0 5.7 5.3 5.3 5.5 5.3 5.0 4.9 5.6 5.6 5.6 5.7 5.7 4.9 5.7 6.1 6.0 6.1 5.2 2.9 2.4 1.9 1.8 1.5 1.5 1.5 5.3 5.2 5.1 5.1 4.0
5.5 6.0 6.5 6.5 6.6 6.6 6.0 5.7 6.2 6.5 6.9 7.1 6.7 5.6 7.3 6.7 5.3 5.2 5.2 5.0 6.4 5.5 5.6 6.4 5.2 5.1 5.6 5.9 5.9 5.3 3.5 2.9 2.6 1.7 1.0 1.5 2.4 2.8 5.8 5.3 4.9 4.0 3.8
Wind_Speed
15 14 13 11 10 8 7 7 7 6 7 6 6 6 6 6 6 6 6 7 7 7 7 7 9 9 7 7 7 8 10 11 14 16 13 15 16 14 13 18 17 16 14
16 15 13 12 10 9 8 8 7 7 6 6 6 6 6 6 6 6 7 7 7 7 8 7 10 7 8 9 8 11 11 13 13 18 16 15 17 14 13 13 9 11 9
16 15 13 12 11 10 9 8 7 7 7 6 6 6 6 6 6 6 6 7 7 7 8 8 10 9 9 9 10 10 11 11 11 12 16 13 11 8 12 12 8 5 12
15 15 14 13 12 11 10 8 8 7 7 6 6 6 6 6 5 6 6 7 7 8 9 10 10 10 11 10 11 13 11 11 15 14 14 10 8 8 6 7 4 5 11
15 15 15 13 11 9 9 8 7 7 6 5 5 5 5 4 5 5 6 7 7 8 8 8 7 12 20 18 11 12 13 14 14 15 14 5 7 4 6 3 4 6 11
16 15 12 12 12 11 9 8 7 6 6 5 5 5 5 4 10 15 12 6 6 5 6 7 6 15 15 20 22 27 22 17 19 15 12 7 8 4 3 2 1 6 7
15 14 13 13 12 11 9 7 7 7 5 6 5 5 6 6 12 14 16 5 3 5 6 7 8 8 14 9 18 26 25 29 29 18 12 8 7 7 6 5 8 6 7
15 14 13 13 12 10 8 8 6 5 6 5 6 6 5 6 12 15 15 4 5 7 7 9 9 9 8 14 14 16 17 17 17 13 13 8 6 6 7 6 5 8 11
15 15 14 14 12 10 8 8 5 5 4 5 5 5 5 6 13 14 12 4 6 7 8 8 8 8 15 24 15 16 16 16 19 26 27 19 12 6 5 2 5 8 14
16 15 14 14 13 11 9 8 5 4 5 4 5 6 7 6 11 11 12 3 5 6 7 8 15 16 23 24 15 12 15 15 15 17 15 6 12 9 12 5 4 10 11
13 13 13 12 12 10 8 5 6 6 4 4 5 5 5 6 7 11 15 4 5 7 7 7 7 19 25 25 24 10 14 18 16 11 9 6 5 5 5 4 7 10 10
14 13 12 11 8 7 8 6 5 5 5 5 3 5 4 5 9 10 14 12 12 5 8 7 8 21 26 24 19 21 25 21 9 8 8 6 8 7 4 4 5 9 8
14 13 11 10 7 7 7 6 3 4 4 4 3 4 4 4 4 12 14 14 16 9 7 12 23 23 23 17 17 21 21 9 9 9 8 8 7 7 6 5 5 11 12
13 11 9 9 7 6 4 4 4 4 3 3 4 4 4 4 4 4 4 5 11 10 10 7 13 17 17 16 13 8 9 8 9 8 8 9 6 7 7 7 7 10 10
11 9 8 7 7 5 4 4 4 4 4 4 4 4 3 4 4 8 9 5 4 5 7 3 5 7 6 7 8 8 9 9 9 9 8 9 8 8 7 9 9 12 9
9 7 7 6 4 4 4 3 5 6 6 8 10 7 3 7 9 13 13 14 14 14 2 3 4 6 7 8 8 9 10 13 9 9 9 9 9 10 10 11 10 12 12
8 7 5 6 5 4 3 3 3 2 1 4 6 5 7 7 12 13 13 14 13 7 1 3 4 6 7 8 7 7 11 10 13 9 9 8 9 10 12 14 12 13 13
7 13 6 5 4 4 4 3 3 3 2 3 5 6 7 8 9 11 11 10 4 3 2 3 4 6 6 7 8 8 11 11 11 11 10 7 6 9 9 13 13 14 13
7 5 5 4 4 4 3 3 3 2 3 3 2 4 6 7 9 9 10 1 3 4 4 4 4 5 6 6 7 7 10 10 12 10 9 8 6 8 13 11 14 20 18
6 13 8 4 4 3 3 3 3 3 3 3 2 3 2 3 3 3 3 3 4 4 4 5 5 4 5 6 6 6 9 10 10 10 9 8 10 8 13 15 13 15 14
5 5 10 3 3 3 3 3 2 1 3 3 3 3 10 4 4 3 3 4 4 6 5 4 4 4 5 6 6 6 8 9 10 11 10 9 9 7 8 14 15 15 13
5 4 4 3 3 3 3 2 2 2 3 2 2 3 10 3 2 2 4 4 4 6 5 5 5 4 5 5 5 6 9 11 12 11 11 10 9 8 12 13 15 14 15
5 5 4 3 3 4 2 1 1 1 2 2 2 3 3 4 3 4 4 4 5 6 5 5 5 5 5 5 5 5 7 9 11 11 12 10 9 8 13 14 16 15 15
5 5 4 3 3 3 2 0 2 3 3 3 3 3 4 4 3 3 4 4 6 6 5 5 5 7 7 6 5 4 6 8 10 11 13 11 8 9 9 15 16 18 14
5 4 4 3 3 2 0 1 2 2 2 2 3 3 4 4 4 4 4 4 5 5 6 6 5 7 9 11 8 8 12 18 16 19 9 9 10 11 10 12 15 14 17
4 4 3 3 3 2 1 1 1 1 2 3 3 5 4 3 4 4 4 4 6 7 9 6 6 10 12 9 7 10 17 20 19 23 12 7 6 6 11 15 20 14 18
Wind_Direction
181 179 180 185 187 180 178 188 190 187 197 200 214 230 240 251 262 259 266 270 264 266 266 261 261 258 256 255 249 248 249 251 267 283 280 279 274 261 255 254 228 236 268
177 177 181 180 180 178 186 187 182 197 193 204 213 228 240 252 262 258 265 275 267 266 265 261 264 269 257 257 254 253 254 258 265 276 280 276 263 247 238 253 239 242 270
173 174 177 179 178 184 188 182 183 191 199 209 213 227 245 254 263 267 256 262 263 259 262 262 264 264 266 264 260 263 265 269 270 280 285 274 249 238 232 221 199 251 267
172 176 180 180 182 185 184 178 183 190 197 213 220 234 243 252 261 264 262 264 264 265 260 257 262 265 268 273 269 272 273 285 291 284 280 268 228 224 214 193 167 240 255
175 180 184 180 178 174 174 178 186 187 203 206 227 246 247 252 258 261 257 258 259 266 276 278 271 276 287 301 299 298 304 297 294 293 296 243 220 211 218 185 165 237 268
176 182 175 171 173 177 177 181 182 191 195 204 213 228 264 263 279 305 304 276 275 283 283 278 269 297 288 295 305 301 303 295 291 295 294 213 200 196 166 191 256 246 193
177 175 172 172 175 177 175 171 182 187 181 197 221 234 254 264 286 303 307 301 280 283 283 286 294 298 305 286 298 299 299 298 300 301 295 250 196 191 178 153 206 237 191
174 171 171 170 173 170 162 175 173 168 188 199 230 241 250 270 288 305 305 297 288 282 278 282 287 288 280 304 303 304 303 302 307 310 305 266 222 188 171 165 220 237 140
171 170 169 166 165 162 168 171 170 174 186 212 225 255 248 272 291 297 310 289 277 276 277 276 278 275 297 315 313 304 303 313 313 317 309 276 225 176 162 190 236 212 137
171 169 162 160 160 166 167 166 168 172 200 210 252 239 259 261 289 295 313 292 275 278 278 273 285 310 314 317 313 317 320 309 313 319 314 249 208 204 215 228 268 158 138
156 150 149 153 155 160 154 154 171 185 196 231 252 275 265 255 268 292 306 291 294 304 296 291 296 310 314 316 319 326 310 318 321 313 303 232 205 206 197 207 247 166 149
143 143 145 142 150 150 157 168 168 170 200 235 263 285 267 263 271 297 306 306 301 282 285 295 297 307 317 318 322 316 331 330 312 312 313 205 192 210 197 201 221 151 133
138 138 136 137 141 150 155 167 167 177 193 240 231 258 271 266 271 298 303 301 298 299 300 304 315 315 317 320 311 326 332 319 314 314 315 308 211 182 177 181 168 150 119
131 128 128 140 143 150 154 161 173 183 191 216 238 251 256 261 278 285 279 284 290 290 289 296 310 315 315 311 313 320 319 315 312 305 293 283 226 161 170 177 148 154 133
123 129 139 148 157 157 172 176 190 200 183 202 226 220 235 272 261 276 300 289 280 269 323 318 316 315 315 315 316 333 326 317 317 309 299 286 183 166 176 173 167 154 148
130 137 149 145 147 150 166 168 211 221 228 218 230 248 243 253 304 318 308 313 315 310 349 313 306 305 309 311 318 329 325 320 321 309 306 290 172 173 179 174 161 158 150
134 137 137 143 154 158 160 178 210 335 279 261 274 288 302 298 313 316 309 312 316 320 286 292 288 295 305 305 314 327 321 318 316 319 309 306 182 183 180 173 156 152 154
145 153 148 158 159 150 160 179 178 200 219 291 300 299 288 322 322 316 309 319 326 324 264 278 279 286 295 303 311 328 321 320 323 322 316 297 219 177 188 164 159 157 156
131 136 136 135 144 148 145 151 186 216 240 242 254 276 303 338 323 309 316 296 288 284 274 277 268 271 283 292 298 318 317 319 319 316 308 315 291 195 178 155 160 161 155
121 139 136 134 135 135 141 170 202 217 232 253 277 264 279 6 306 292 287 289 285 272 267 266 274 262 278 286 289 314 317 315 316 319 314 321 325 201 174 157 159 160 160
121 132 141 133 143 151 154 174 182 249 263 251 252 278 296 278 258 248 283 294 285 288 278 270 277 274 284 287 286 309 318 312 313 317 324 323 317 227 177 165 158 162 157
124 125 132 140 147 134 124 136 208 231 252 266 293 299 304 282 279 302 297 290 282 283 277 286 290 277 284 280 286 294 320 317 318 315 314 314 299 297 167 165 159 159 159
127 134 130 127 124 127 112 108 297 321 286 279 313 287 306 289 281 288 292 287 287 287 281 286 294 294 287 277 277 270 308 311 309 305 305 299 292 303 174 164 162 160 164
126 128 128 122 133 116 90 358 286 289 305 301 301 299 290 284 290 295 296 295 288 287 286 286 282 288 292 295 292 286 299 303 304 301 301 296 284 291 175 163 164 163 156
127 120 125 132 118 125 253 265 291 308 314 315 322 297 287 299 304 302 302 304 303 307 302 298 292 292 294 300 305 309 307 307 308 301 293 282 267 263 173 167 161 158 155
126 131 144 125 137 159 178 264 309 308 301 320 297 284 287 318 300 301 312 312 323 311 306 304 297 298 301 303 304 310 309 311 310 314 316 281 253 248 183 167 163 157 159